Location: Croisilles
(50.1998°N, 2.8793°E)
Time: 19:21:32
(UTC+00:00)

Cosmos 2228 - Pass Details

Date: 21 January 2021
Orbit: 589 x 617 km, 82.5° (Epoch: 02 March)

Event Time Altitude Azimuth Distance (km) Brightness Sun altitude
Rises 17:13:38 0° 350° (N) 2,841 6.3 -8.0°
Reaches altitude 10° 17:15:51 10° 351° (N) 1,937 5.5 -8.3°
Maximum altitude 17:20:08 85° 78° (ENE) 605 3.0 -8.9°
Drops below altitude 10° 17:24:25 10° 170° (S) 1,934 5.7 -9.6°
Sets 17:26:37 0° 170° (S) 2,836 6.6 -9.9°
